• în Republica Moldova
  • Lista ţărilor
  • Pe 7 zile
  • Temperatura apei
  • Hartă satelitară
  • Meteo pe hartă
  • Widget-uri
  • user-avatar
    Intrare

    Meteo pe oră la Algiers

    Astăzi, 21 Ianuarie, Luni

    Timp Temperatura Precipitaţii Vânt Presiune Umiditate
    00:00 +10°C° 0 mm 6 m/s 744 mmHg 86%
    01:00 +10°C° 1 mm 6 m/s 745 mmHg 85%
    02:00 +10°C° 1 mm 7 m/s 745 mmHg 84%
    03:00 +10°C° 1 mm 7 m/s 745 mmHg 84%
    04:00 +10°C° 1.3 mm 7 m/s 745 mmHg 82%
    05:00 +10°C° 1.3 mm 6 m/s 746 mmHg 81%
    06:00 +10°C° 1.3 mm 6 m/s 746 mmHg 80%
    07:00 +10°C° 1.2 mm 5 m/s 747 mmHg 79%
    08:00 +10°C° 1.2 mm 5 m/s 747 mmHg 78%
    09:00 +11°C° 1.2 mm 4 m/s 748 mmHg 77%
    10:00 +11°C° 1.3 mm 4 m/s 748 mmHg 76%
    11:00 +11°C° 1.3 mm 4 m/s 748 mmHg 75%
    12:00 +11°C° 1.3 mm 4 m/s 748 mmHg 75%
    13:00 +11°C° 1.3 mm 4 m/s 748 mmHg 75%
    14:00 +11°C° 1.3 mm 3 m/s 748 mmHg 74%
    15:00 +11°C° 1.3 mm 3 m/s 748 mmHg 74%
    16:00 +12°C° 1.2 mm 2 m/s 749 mmHg 75%
    17:00 +10°C° 1.2 mm 2 m/s 749 mmHg 77%
    18:00 +10°C° 1.2 mm 2 m/s 749 mmHg 78%
    19:00 +9°C° 0.7 mm 2 m/s 749 mmHg 79%
    20:00 +9°C° 0.7 mm 2 m/s 750 mmHg 79%
    21:00 +9°C° 0.7 mm 2 m/s 750 mmHg 80%
    22:00 +9°C° 0.4 mm 2 m/s 750 mmHg 80%
    23:00 +9°C° 0.4 mm 2 m/s 750 mmHg 80%

    Mâine, 22 Ianuarie, Marţi

    Timp Temperatura Precipitaţii Vânt Presiune Umiditate
    00:00 +8°C° 0.4 mm 2 m/s 750 mmHg 80%
    01:00 +8°C° 0.5 mm 2 m/s 750 mmHg 80%
    02:00 +8°C° 0.5 mm 2 m/s 749 mmHg 79%
    03:00 +8°C° 0.5 mm 2 m/s 749 mmHg 79%
    04:00 +8°C° 0.2 mm 3 m/s 749 mmHg 78%
    05:00 +8°C° 0.2 mm 3 m/s 749 mmHg 76%
    06:00 +7°C° 0.2 mm 4 m/s 749 mmHg 75%
    07:00 +8°C° 0.2 mm 5 m/s 749 mmHg 73%
    08:00 +8°C° 0.2 mm 5 m/s 749 mmHg 71%
    09:00 +9°C° 0.2 mm 6 m/s 749 mmHg 69%
    10:00 +9°C° 0.1 mm 6 m/s 749 mmHg 64%
    11:00 +10°C° 0.1 mm 7 m/s 748 mmHg 58%
    12:00 +11°C° 0.1 mm 8 m/s 748 mmHg 52%
    13:00 +11°C° 0.1 mm 8 m/s 747 mmHg 54%
    14:00 +10°C° 0.1 mm 8 m/s 747 mmHg 56%
    15:00 +10°C° 0.1 mm 8 m/s 746 mmHg 58%
    16:00 +10°C° 0.1 mm 7 m/s 746 mmHg 58%
    17:00 +9°C° 0.1 mm 7 m/s 746 mmHg 58%
    18:00 +9°C° 0.1 mm 7 m/s 746 mmHg 58%
    19:00 +9°C° 0.2 mm 6 m/s 745 mmHg 59%
    20:00 +9°C° 0.2 mm 6 m/s 745 mmHg 61%
    21:00 +9°C° 0.2 mm 6 m/s 745 mmHg 63%
    22:00 +9°C° 0.5 mm 6 m/s 744 mmHg 66%
    23:00 +9°C° 0.5 mm 7 m/s 744 mmHg 69%

    Poimâine, 23 Ianuarie, Miercuri

    Timp Temperatura Precipitaţii Vânt Presiune Umiditate
    00:00 +9°C° 0.5 mm 7 m/s 743 mmHg 71%
    01:00 +8°C° 1.8 mm 7 m/s 743 mmHg 75%
    02:00 +8°C° 1.8 mm 7 m/s 742 mmHg 79%
    03:00 +8°C° 1.8 mm 7 m/s 742 mmHg 83%
    04:00 +7°C° 0.9 mm 8 m/s 742 mmHg 78%
    05:00 +9°C° 0.9 mm 8 m/s 742 mmHg 74%
    06:00 +9°C° 0.9 mm 8 m/s 742 mmHg 69%
    07:00 +9°C° 0.5 mm 8 m/s 742 mmHg 67%
    08:00 +10°C° 0.5 mm 8 m/s 742 mmHg 65%
    09:00 +10°C° 0.5 mm 8 m/s 743 mmHg 63%
    10:00 +11°C° 0.1 mm 9 m/s 742 mmHg 61%
    11:00 +11°C° 0.1 mm 10 m/s 742 mmHg 59%
    12:00 +12°C° 0.1 mm 12 m/s 741 mmHg 57%
    13:00 +10°C° 1.4 mm 13 m/s 740 mmHg 61%
    14:00 +10°C° 1.4 mm 14 m/s 740 mmHg 65%
    15:00 +9°C° 1.4 mm 14 m/s 739 mmHg 69%
    16:00 +10°C° 1.2 mm 14 m/s 739 mmHg 70%
    17:00 +10°C° 1.2 mm 14 m/s 738 mmHg 71%
    18:00 +10°C° 1.2 mm 14 m/s 738 mmHg 72%
    19:00 +10°C° 4.4 mm 13 m/s 738 mmHg 74%
    20:00 +9°C° 4.4 mm 13 m/s 738 mmHg 77%
    21:00 +9°C° 4.4 mm 12 m/s 738 mmHg 79%
    22:00 +9°C° 0.9 mm 14 m/s 738 mmHg 70%
    23:00 +9°C° 0.9 mm 15 m/s 738 mmHg 61%

    24 Ianuarie, Joi

    Timp Temperatura Precipitaţii Vânt Presiune Umiditate
    00:00 +9°C° 0.9 mm 16 m/s 739 mmHg 52%
    01:00 +9°C° 0.3 mm 16 m/s 739 mmHg 53%
    02:00 +8°C° 0.3 mm 15 m/s 739 mmHg 55%
    03:00 +8°C° 0.3 mm 15 m/s 739 mmHg 56%
    04:00 +6°C° 0.2 mm 14 m/s 739 mmHg 54%
    05:00 +7°C° 0.2 mm 13 m/s 739 mmHg 52%
    06:00 +7°C° 0.2 mm 11 m/s 739 mmHg 50%
    07:00 +7°C° 0.1 mm 11 m/s 740 mmHg 49%
    08:00 +7°C° 0.1 mm 11 m/s 740 mmHg 49%
    09:00 +7°C° 0.1 mm 11 m/s 741 mmHg 49%
    10:00 +7°C° 0.4 mm 10 m/s 741 mmHg 48%
    11:00 +8°C° 0.4 mm 10 m/s 742 mmHg 48%
    12:00 +8°C° 0.4 mm 9 m/s 742 mmHg 48%
    13:00 +7°C° 0.4 mm 9 m/s 742 mmHg 50%
    14:00 +7°C° 0.4 mm 8 m/s 742 mmHg 53%
    15:00 +8°C° 0.4 mm 7 m/s 742 mmHg 56%
    16:00 +6°C° 0.3 mm 7 m/s 742 mmHg 58%
    17:00 +6°C° 0.3 mm 7 m/s 743 mmHg 61%
    18:00 +6°C° 0.3 mm 7 m/s 744 mmHg 64%
    19:00 +6°C° 0.2 mm 7 m/s 744 mmHg 65%
    20:00 +6°C° 0.2 mm 7 m/s 745 mmHg 65%
    21:00 +6°C° 0.2 mm 7 m/s 746 mmHg 66%
    22:00 +6°C° 0.1 mm 7 m/s 746 mmHg 66%
    23:00 +6°C° 0.1 mm 7 m/s 747 mmHg 66%

    25 Ianuarie, Vineri

    Timp Temperatura Precipitaţii Vânt Presiune Umiditate
    00:00 +6°C° 0.1 mm 7 m/s 747 mmHg 67%
    01:00 +7°C° 0.2 mm 6 m/s 747 mmHg 66%
    02:00 +7°C° 0.2 mm 5 m/s 747 mmHg 66%
    03:00 +7°C° 0.2 mm 4 m/s 748 mmHg 65%
    04:00 +7°C° 0.2 mm 4 m/s 748 mmHg 64%
    05:00 +7°C° 0.2 mm 4 m/s 748 mmHg 64%
    06:00 +8°C° 0.2 mm 4 m/s 748 mmHg 63%
    07:00 +8°C° 0.2 mm 4 m/s 749 mmHg 64%
    08:00 +8°C° 0.2 mm 4 m/s 749 mmHg 65%
    09:00 +9°C° 0.2 mm 3 m/s 750 mmHg 66%
    10:00 +10°C° 0.3 mm 4 m/s 750 mmHg 64%
    11:00 +10°C° 0.3 mm 4 m/s 750 mmHg 63%
    12:00 +10°C° 0.3 mm 4 m/s 750 mmHg 61%
    13:00 +11°C° 0.2 mm 4 m/s 750 mmHg 59%
    14:00 +11°C° 0.2 mm 4 m/s 750 mmHg 58%
    15:00 +11°C° 0.2 mm 4 m/s 750 mmHg 56%
    16:00 +10°C° 0 mm 4 m/s 751 mmHg 57%
    17:00 +10°C° 0 mm 3 m/s 751 mmHg 59%
    18:00 +9°C° 0 mm 3 m/s 751 mmHg 60%
    19:00 +9°C° 0 mm 3 m/s 752 mmHg 60%
    20:00 +8°C° 0 mm 3 m/s 752 mmHg 61%
    21:00 +8°C° 0 mm 3 m/s 752 mmHg 61%
    22:00 +8°C° 0 mm 3 m/s 752 mmHg 63%
    23:00 +8°C° 0 mm 3 m/s 752 mmHg 64%

    26 Ianuarie, Sâmbătă

    Timp Temperatura Precipitaţii Vânt Presiune Umiditate
    00:00 +6°C° 0 mm 4 m/s 752 mmHg 66%
    01:00 +6°C° 0 mm 4 m/s 752 mmHg 65%
    02:00 +6°C° 0 mm 4 m/s 752 mmHg 64%
    03:00 +6°C° 0 mm 4 m/s 752 mmHg 63%
    04:00 +6°C° 0 mm 4 m/s 752 mmHg 62%
    05:00 +6°C° 0 mm 4 m/s 752 mmHg 62%
    06:00 +6°C° 0 mm 4 m/s 752 mmHg 61%
    07:00 +7°C° 0 mm 4 m/s 753 mmHg 61%
    08:00 +7°C° 0 mm 4 m/s 753 mmHg 60%
    09:00 +8°C° 0 mm 4 m/s 753 mmHg 59%
    10:00 +10°C° 0 mm 4 m/s 753 mmHg 57%
    11:00 +11°C° 0 mm 4 m/s 753 mmHg 55%
    12:00 +12°C° 0 mm 4 m/s 753 mmHg 53%
    13:00 +13°C° 0 mm 4 m/s 752 mmHg 52%
    14:00 +13°C° 0 mm 3 m/s 752 mmHg 51%
    15:00 +13°C° 0 mm 3 m/s 751 mmHg 50%
    16:00 +12°C° 0 mm 3 m/s 751 mmHg 52%
    17:00 +12°C° 0 mm 2 m/s 751 mmHg 54%
    18:00 +12°C° 0 mm 2 m/s 751 mmHg 56%
    19:00 +10°C° 0 mm 2 m/s 751 mmHg 56%
    20:00 +10°C° 0 mm 3 m/s 751 mmHg 57%
    21:00 +10°C° 0 mm 3 m/s 751 mmHg 58%
    22:00 +10°C° 0 mm 3 m/s 750 mmHg 56%
    23:00 +9°C° 0 mm 3 m/s 750 mmHg 55%
    Arată mai mult